Regional Weather Roundup
Issued by NWS

Home | Current Version | Previous Version | Graphics & Text | Print | Product List | Glossary On
Versions: 1 2 3 4 5 6 7 8 9 10 11 12 13 14 15 16 17 18 19 20 21 22 23 24 25 26 27
000
ASUS45 KSLC 261710
RWRUT

UTAH REGIONAL WEATHER ROUNDUP
NATIONAL WEATHER SERVICE SALT LAKE CITY UT
1100 AM MDT FRI MAY 26 2017

UTZ001>011-023>025-261800-

NORTHERN UTAH

CITY           SKY/WX    TMP DP  RH WIND       PRES   REMARKS
BRIGHAM CITY   MOSUNNY   59  35  40 W6        29.84R
HILL AFB       PTSUNNY   57  37  48 N5        29.85R
LOGAN          MOSUNNY   58  40  51 S8        29.83R
OGDEN          MOSUNNY   60  37  42 NW8       29.83R
SALT LAKE CITY CLOUDY    58  38  47 W6        29.84R
TOOELE VALLEY  CLOUDY    61  41  48 NW9       29.86R
WENDOVER       MOSUNNY   63  34  33 N17G23    29.85R
HEBER CITY     PTSUNNY   63  32  31 SW9G18    29.80R
WEST JORDAN    CLOUDY    56  43  61 NW7       29.85R

$$

UTZ011>015-024>027-261800-

CENTRAL/NORTHEAST UTAH

CITY           SKY/WX    TMP DP  RH WIND       PRES   REMARKS
PROVO AIRPORT  MOSUNNY   63  39  42 NW16      29.83R
MOAB/CANYONLAN SUNNY     79  19  10 S17G28    29.76F
DELTA          SUNNY     66  28  24 NW10      29.84R
PRICE          MOSUNNY   63  33  32 SE8       29.84S
ROOSEVELT      SUNNY     66  36  32 CALM      29.81F
VERNAL         SUNNY     62  39  42 VRB3      29.80F

$$

UTZ013>016-019>022-027-261800-

SOUTHERN UTAH

CITY           SKY/WX    TMP DP  RH WIND       PRES   REMARKS
BRYCE CANYON   SUNNY     62  22  21 S16G25    29.97F
CEDAR CITY     SUNNY     70  22  16 SW22G31   29.86R
MILFORD        SUNNY     73  21  14 SW26G39   29.81S
ST GEORGE      PTSUNNY   81  25  12 VRB7      29.78R
HANKSVILLE     SUNNY     79  21  11 SW26G36   29.79S
BLANDING       SUNNY     69  20  16 SW14G26   30.02S

$$

REGIONAL REPORTS     COLORADO/ARIZONA

CITY           SKY/WX    TMP DP  RH WIND       PRES   REMARKS
CRAIG, CO      CLOUDY    65  43  44 N8        29.85F
GRAND JUNCTION SUNNY     75  33  21 SE18G28   29.81F
RIFLE, CO      SUNNY     69  38  32 W9        29.86F
MONTROSE, CO   CLOUDY    71  23  16 W10       29.93F
CORTEZ, CO     SUNNY     70  20  15 S9        29.99S
COLORADO CITY    N/A     77  27  15 SW12G17   29.92R
PAGE, AZ       SUNNY     78  18  10 SW9G18    29.83F
GRAND CANYON   SUNNY     65  19  17 S21G29    30.02S
KINGMAN, AZ    SUNNY     77  29  17 SW22G29   29.87R
FLAGSTAFF, AZ  SUNNY     60  16  18 SW18G29   30.06S

$$

REGIONAL REPORTS    NEVADA/IDAHO/WYOMING

CITY           SKY/WX    TMP DP  RH WIND       PRES   REMARKS
LAS VEGAS, NV  SUNNY     79  27  14 S9        29.76R
ELY, NY        MOSUNNY   61  26  26 W9        29.91S
ELKO, NV       MOSUNNY   59  29  31 W9        29.92R
POCATELLO, ID  CLOUDY    45  42  89 W7        29.89R
BURLEY, ID     CLOUDY    48  41  76 W7        29.89R
FORT BRIDGER,  PTSUNNY   51  39  64 NW10G18   29.92R
EVANSTON, WY   LGT RAIN  43  38  82 W6        29.90R
ROCK SPRINGS,  CLOUDY    52  37  56 NE6G17    29.87S
KEMMERER, WY     N/A     43  37  81 N3        29.90F

$$




USA.gov is the U.S. government's official web portal to all federal, state and local government web resources and services.